Location: Oroua River
(40.4333°S, 175.4333°E)
Time: 15:08:52
(UTC+00:00)

MSX - Pass Details

Date: 03 February 2023
Orbit: 895 x 905 km, 98.9° (Epoch: 22 March)

Event Time Altitude Azimuth Distance (km) Brightness Sun altitude
Exits shadow 14:15:12 42° 248° (WSW) 1,279 4.5 -28.2°
Drops below altitude 10° 14:19:44 10° 206° (SSW) 2,617 6.6 -27.8°
Sets 14:22:16 0° 199° (SSW) 3,565 7.5 -27.6°
